Regional Weather Roundup
Issued by NWS Midland/Odessa, TX

Skip options and go directly to product.
Home | Oldest Version | Previous Version | Current Version | All | Text Only | Save Text | Print | Product List | Glossary Off

Skip product version selection by date and time.   

059
ASUS44 KMAF 260810
RWRMAF
MIDLAND AREA WEATHER ROUNDUP
NATIONAL WEATHER SERVICE MIDLAND TX
300 AM CDT TUE JUL 26 2016

...IN SOUTHWEST TEXAS AND SOUTHEAST NEW MEXICO...

CITY           SKY/WX    TMP DP  RH WIND       PRES   REMARKS
ALPINE         CLEAR     73  54  51 W5        30.16F
ANDREWS        MOCLDY    82  60  46 N16G22    30.08R
ARTESIA        DRIZZLE   73  63  68 NW16G26   30.17R
BIG SPRING     CLEAR     81  64  56 E7        30.04S
CARLSBAD       CLOUDY    77  59  53 NW21      30.11R
DRYDEN           N/A     85  61  44 SE13G22   29.95F
FORT STOCKTON  CLEAR     79  59  50 S7        30.00F
GUAD PASS      CLOUDY    76  53  44 NE17      30.21S
HOBBS          CLOUDY    73  61  64 N14       30.13S
MARFA          CLEAR     68  54  60 NE3       30.15F
MIDLAND AIRPK  CLEAR     83  60  45 SE9       30.03S
MIDLAND INTL   CLEAR     83  60  45 SE9       30.01F
ODESSA         PTCLDY    84  59  42 SE9       30.03S
PECOS          CLEAR     81  57  44 NE6       29.97F
PRESIDIO       FAIR      86  55  35 NE6       29.97S
SEMINOLE       MOCLDY    76  59  55 N13G21    30.11S
SNYDER           N/A     78  66  66 SE5       30.05S
WINK           CLEAR     84  57  39 E8        29.98F
$$
...OTHER STATIONS IN TEXAS...

CITY           SKY/WX    TMP DP  RH WIND       PRES   REMARKS
ABILENE        CLEAR     75  68  78 S5        30.00F
AMARILLO       PTCLDY    70  59  68 CALM      30.14R
AUSTIN         MOCLDY    77  75  93 CALM      29.93R
BROWNSVILLE    PTCLDY    82  78  88 S12       29.86F
CORPUS CHRISTI CLOUDY    80  77  90 S7        29.86F
DALLAS FTW     CLOUDY    79  71  76 CALM      29.95R
DEL RIO        CLOUDY    81  71  71 E12G18    29.89R
EL PASO        PTCLDY    87  50  27 E6        30.04S
HOUSTON INT    MOCLDY    79  75  87 CALM      29.92S
LUBBOCK        CLOUDY    76  60  57 N9        30.11S
SAN ANGELO     CLEAR     76  67  73 CALM      29.98F
SAN ANTONIO    CLOUDY    74  71  91 W6        29.93R
WACO           CLEAR     74  72  93 NW3       29.94S
WICHITA FALLS  NOT AVBL
$$
...OTHER LOCATIONS IN NEW MEXICO...

CITY           SKY/WX    TMP DP  RH WIND       PRES   REMARKS
ALAMAGORDO     CLOUDY    79  55  44 E12G18    30.13R
ALBUQUERQUE    CLOUDY    72  58  61 E18G24    30.26F
CANNON AFB     CLOUDY    67  63  89 SW9       30.17F
CLOVIS         PTCLDY    70  57  64 SW12      30.17F
HOLLOMAN AFB   CLOUDY    76  62  61 N24G31    30.12R
ROSWELL        CLOUDY    72  61  68 N16       30.16S
RUIDOSO          N/A     64  55  72 SW6       30.40S
SANTA FE       CLOUDY    64  56  75 SE12G23   30.34S
TRUTH OR CONSE CLOUDY    73  60  63 NE8       30.20R
TUCUMCARI      CLOUDY    69  64  84 NW10      30.16R
$$

USA.gov is the U.S. government's official web portal to all federal, state and local government web resources and services.